[ hide orbit diagram ]
For accurate long-term ephemerides, please instead use our Horizons system.This orbit viewer was implemented using two-body methods, and hence should not be used for determining accurate long-term trajectories (over several years or decades) or planetary encounter circumstances.
Orbital Elements at Epoch 2459000.5 (2020-May-31.0) TDB
Reference: JPL 9 (heliocentric ecliptic J2000)
Element | Value | Uncertainty (1-sigma) | Units |
e | .02981135952327243 | 8.5895e-08 | |
a | 3.147834288422292 | 5.1037e-08 | au |
q | 3.053993068730451 | 2.6408e-07 | au |
i | 9.703089265361101 | 9.886e-06 | deg |
node | 22.53959453813109 | 4.4634e-05 | deg |
peri | 41.53559375284895 | 0.00015956 | deg |
M | 191.716473141905 | 0.00015136 | deg |
tp | 2459954.076026225484 (2023-Jan-09.57602623) | 0.00086109 | TDB |
period | 2039.934483490181 5.59 | 4.9612e-05 1.358e-07 | d yr |
n | .176476255935468 | 4.2919e-09 | deg/d |
Q | 3.241675508114134 | 5.2559e-08 | au |
|
| | Orbit Determination Parameters
Additional Information
|
[ show covariance matrix ]
Physical Parameter Table
Parameter |
Symbol |
Value |
Units |
Sigma |
Reference |
Notes |
absolute magnitude |
H |
16.1 |
|
n/a |
MPO434258 |
|
|
357800 (2005 TG86) Discovered 2005-Oct-04 by Mt. Lemmon Survey at Mount Lemmon |
Reference: 20130327/Numbers.arc | Last Updated: 2013-03-29 |
|
[ show close-approach data ]
|